Regional Weather Roundup
Issued by NWS

Home | Current Version | Previous Version | Graphics & Text | Print | Product List | Glossary On
Versions: 1 2 3 4 5 6 7 8 9 10 11 12 13 14 15 16 17 18 19 20 21 22 23 24 25 26 27 28 29 30 31 32 33 34 35 36 37 38 39 40 41 42 43 44 45 46 47 48 49 50
000
ASUS43 KIND 301359
RWRIN

WEATHER ROUNDUP FOR INDIANA
NATIONAL WEATHER SERVICE INDIANAPOLIS IN
1000 AM EDT WED JUL 30 2014

NOTE: "FAIR" INDICATES FEW OR NO CLOUDS BELOW 12,000 FEET WITH NO
SIGNIFICANT WEATHER AND/OR OBSTRUCTIONS TO VISIBILITY.

* - STATION DOES NOT REPORT WEATHER SUCH AS PRECIPITATION OR FOG.

+ - STATION NOT QUALITY CONTROLLED BY THE NATIONAL WEATHER SERVICE.
    USE DATA WITH CAUTION...ESPECIALLY DEWPOINT AND RELATIVE
    HUMIDITY OBSERVATIONS.

INZ001>003-010>013-019-020-301500-
NORTHWEST INDIANA

CITY           SKY/WX    TMP DP  RH WIND       PRES   REMARKS
GARY /AIRPORT/ PTSUNNY   70  57  64 W6        30.05R
KNOX *+        PTSUNNY   64  57  79 CALM      30.04R
MONTICELLO +   PTSUNNY   65  62  90 W3        30.05S
RENSSELAER +   MOSUNNY   64  64 100 W5        30.06S
VALPARAISO     MOSUNNY   68  58  70 NW7       30.05R

$$

LMZ046-743>745-301500-
SOUTHERN LAKE MICHIGAN

STATION/POSITION TIME  TEMP WIND        PRES
                       AIR  DIR/SP/G
                 (UTC) (F)  (DEG/KT/KT) (MB)
MICHIGAN CITY    1300   65  260/  8/ 10   N/A

$$

INZ004-005-014>016-021>024-301500-
NORTH CENTRAL INDIANA

CITY           SKY/WX    TMP DP  RH WIND       PRES   REMARKS
ELKHART        PTSUNNY   64  61  88 W3        30.04S
GOSHEN         PTSUNNY   66  58  75 W6        30.03S
SOUTH BEND     CLOUDY    65  60  84 W5        30.05R
WARSAW +       MOSUNNY   64  57  77 CALM      30.04S

$$

INZ006>009-017-018-025>027-301500-
NORTHEAST INDIANA

CITY           SKY/WX    TMP DP  RH WIND       PRES   REMARKS
ANGOLA *+      SUNNY     64  55  72 NW5       30.03S
AUBURN +       MOSUNNY   66  57  72 NW6       30.04S
FORT WAYNE     MOSUNNY   66  58  75 W8        30.05R

$$

INZ028-029-035-036-043>045-051>053-301500-
WEST CENTRAL INDIANA

CITY           SKY/WX    TMP DP  RH WIND       PRES   REMARKS
GREENCASTLE +  SUNNY     66  59  77 CALM      30.08F
LAFAYETTE      PTSUNNY   64  61  90 SW5       30.06S
TERRE HAUTE    SUNNY     68  58  70 W5        30.08S

$$

INZ030>032-037>040-046>048-054>057-064-065-301500-
CENTRAL INDIANA

CITY           SKY/WX    TMP DP  RH WIND       PRES   REMARKS
INDIANAPOLIS   MOSUNNY   66  60  81 W6        30.07R
-EAGLE CREEK   SUNNY     68  59  73 W6        30.06S
KOKOMO *+      MOSUNNY   64  61  88 NW8       30.06S
MT COMFORT *+  SUNNY     68  68 100 W5        30.07S
SHELBYVILLE    SUNNY     68  61  78 SW7       30.07S

$$

INZ033-034-041-042-049-050-058-059-301500-
EAST CENTRAL INDIANA

CITY           SKY/WX    TMP DP  RH WIND       PRES   REMARKS
MUNCIE         MOSUNNY   67  59  75 W6        30.05S

$$

INZ060-061-067>069-081>083-085>088-301500-
SOUTHWEST INDIANA

CITY           SKY/WX    TMP DP  RH WIND       PRES   REMARKS
EVANSVILLE     SUNNY     71  59  65 SW5       30.11S

$$

INZ062-063-066-070>080-084-089>092-301500-
SOUTH CENTRAL AND SOUTHEAST INDIANA

CITY           SKY/WX    TMP DP  RH WIND       PRES   REMARKS
BLOOMINGTON    SUNNY     67  59  75 W5        30.09S
SEYMOUR +      SUNNY     66  46  48 W5        30.09R

$$




USA.gov is the U.S. government's official web portal to all federal, state and local government web resources and services.